User: anonymous   Login
Location: Casco Volunteer Fire Department
(44.5576°N, 87.6146°W)
Time: 00:48:55
(UTC+00:00)
Language:

SJ 16-02 - Orbit

View from above orbital plane
View from above orbital plane
View from above satellite
View from above satellite

Ground track
Ground track

The orbit is defined by the following mean orbital elements,

1 41634U          26070.87259463 +.00000000 +00000-0 +11542-3 0 00006
2 41634  75.0014 103.1501 0008669 270.9273  89.0923 14.93236394    02
Epoch (UTC): 11 March 2026 20:56:32
Eccentricity: 0.0008669
inclination: 75.0014°
perigee height: 582 km
apogee height: 594 km
right ascension of ascending node: 103.1501°
argument of perigee: 270.9273°
revolutions per day: 14.93236394
mean anomaly at epoch: 89.0923°

The dashed part of the orbit path shows where the satellite is in the earth's shadow,  

DLR